DLH2HY EDDF-EDDC

Flight info

Callsign DLH2HY
Flight time 0h 40m
Altitude 23000
Route SULUS7S/18 SULUS L984 KULOK Z715 ABKIS Q240 DRN
Aircraft A320/M-SDE2E3FGIJ1LORWXYZ/HB1

Departure

Time 2026-04-15 15:34
Airport Frankfurt Main Airport (EDDF)

Arrival

Time 2026-04-15 16:15
Airport Dresden Airport (EDDC)
Time Latitude Longitude Altitude Speed Heading
2026-04-15 15:14 50.04431 8.56329 362 ft 0 kts 167°
2026-04-15 15:24 50.04446 8.56323 363 ft 4 kts 168°
2026-04-15 15:24 50.04472 8.56314 362 ft 4 kts 173°
2026-04-15 15:24 50.04495 8.56319 358 ft 4 kts 223°
2026-04-15 15:24 50.04509 8.56353 361 ft 4 kts 250°
2026-04-15 15:25 50.04514 8.56373 361 ft 0 kts 249°
2026-04-15 15:28 50.04500 8.56313 357 ft 10 kts 249°
2026-04-15 15:28 50.04478 8.56222 361 ft 8 kts 249°
2026-04-15 15:29 50.04459 8.56145 357 ft 7 kts 249°
2026-04-15 15:29 50.04423 8.56042 356 ft 13 kts 216°
2026-04-15 15:29 50.04335 8.56061 360 ft 15 kts 159°
2026-04-15 15:29 50.04259 8.56024 360 ft 14 kts 250°
2026-04-15 15:30 50.04222 8.55868 359 ft 17 kts 249°
2026-04-15 15:30 50.04178 8.55684 359 ft 19 kts 249°
2026-04-15 15:30 50.04128 8.55474 351 ft 22 kts 250°
2026-04-15 15:30 50.04073 8.55246 357 ft 23 kts 250°
2026-04-15 15:31 50.04016 8.55006 356 ft 25 kts 249°
2026-04-15 15:31 50.03953 8.54743 353 ft 27 kts 249°
2026-04-15 15:31 50.03887 8.54470 351 ft 19 kts 250°
2026-04-15 15:31 50.03823 8.54292 351 ft 19 kts 234°
2026-04-15 15:32 50.03771 8.54099 349 ft 21 kts 249°
2026-04-15 15:32 50.03716 8.53874 350 ft 23 kts 249°
2026-04-15 15:32 50.03655 8.53624 344 ft 26 kts 249°
2026-04-15 15:32 50.03587 8.53353 337 ft 28 kts 249°
2026-04-15 15:33 50.03517 8.53062 334 ft 30 kts 250°
2026-04-15 15:33 50.03452 8.52802 336 ft 25 kts 248°
2026-04-15 15:33 50.03402 8.52614 332 ft 10 kts 232°
2026-04-15 15:33 50.03318 8.52594 336 ft 22 kts 180°
2026-04-15 15:34 50.02906 8.52598 333 ft 94 kts 180°
2026-04-15 15:34 50.02062 8.52608 332 ft 150 kts 179°
2026-04-15 15:34 50.00962 8.52623 838 ft 158 kts 179°
2026-04-15 15:34 49.99862 8.52625 1569 ft 159 kts 180°
2026-04-15 15:35 49.98696 8.52628 2063 ft 178 kts 180°
2026-04-15 15:35 49.97388 8.52782 2426 ft 201 kts 163°
2026-04-15 15:35 49.96169 8.54023 2806 ft 224 kts 128°
2026-04-15 15:35 49.95386 8.56148 3660 ft 228 kts 118°
2026-04-15 15:36 49.94626 8.58323 4596 ft 230 kts 120°
2026-04-15 15:36 49.94073 8.60675 5448 ft 240 kts 101°
2026-04-15 15:36 49.93915 8.63388 5911 ft 264 kts 95°
2026-04-15 15:36 49.93765 8.66293 6682 ft 274 kts 101°
2026-04-15 15:37 49.93152 8.69103 7503 ft 278 kts 120°
2026-04-15 15:37 49.91960 8.71469 8334 ft 281 kts 140°
2026-04-15 15:37 49.90381 8.73290 9193 ft 285 kts 147°
2026-04-15 15:37 49.88824 8.75253 10040 ft 293 kts 136°
2026-04-15 15:38 49.87582 8.77805 10747 ft 304 kts 122°
2026-04-15 15:38 49.86509 8.80762 11078 ft 326 kts 121°
2026-04-15 15:38 49.85379 8.83903 11555 ft 338 kts 120°
2026-04-15 15:38 49.84231 8.87096 12344 ft 342 kts 121°
2026-04-15 15:39 49.83060 8.90338 13137 ft 346 kts 121°
2026-04-15 15:39 49.81873 8.93610 13923 ft 350 kts 121°
2026-04-15 15:39 49.80672 8.96916 14607 ft 354 kts 121°
2026-04-15 15:39 49.79455 9.00259 15272 ft 359 kts 121°
2026-04-15 15:40 49.78219 9.03640 15943 ft 363 kts 121°
2026-04-15 15:40 49.76972 9.07060 16605 ft 367 kts 119°
2026-04-15 15:40 49.75970 9.10719 17256 ft 373 kts 108°
2026-04-15 15:40 49.75326 9.14629 17904 ft 378 kts 104°
2026-04-15 15:41 49.74703 9.18596 18538 ft 382 kts 104°
2026-04-15 15:41 49.74067 9.22605 19105 ft 386 kts 104°
2026-04-15 15:41 49.73417 9.26644 19683 ft 389 kts 104°
2026-04-15 15:41 49.72753 9.30715 20265 ft 392 kts 104°
2026-04-15 15:42 49.72080 9.34820 20849 ft 395 kts 104°
2026-04-15 15:42 49.71403 9.38956 21430 ft 399 kts 104°
2026-04-15 15:42 49.70722 9.43124 22014 ft 402 kts 104°
2026-04-15 15:42 49.70034 9.47326 22585 ft 405 kts 104°
2026-04-15 15:43 49.69338 9.51565 23066 ft 409 kts 104°
2026-04-15 15:43 49.68636 9.55818 23182 ft 405 kts 104°
2026-04-15 15:43 49.67955 9.59939 23200 ft 389 kts 104°
2026-04-15 15:43 49.67405 9.63988 23203 ft 383 kts 96°
2026-04-15 15:44 49.67336 9.68082 23201 ft 381 kts 84°
2026-04-15 15:44 49.67771 9.72100 23204 ft 380 kts 73°
2026-04-15 15:44 49.68476 9.76029 23204 ft 380 kts 73°
2026-04-15 15:44 49.69176 9.79958 23209 ft 380 kts 73°
2026-04-15 15:45 49.69867 9.83892 23210 ft 380 kts 74°
2026-04-15 15:45 49.70555 9.87829 23208 ft 380 kts 74°
2026-04-15 15:45 49.71255 9.91760 23208 ft 379 kts 71°
2026-04-15 15:45 49.72199 9.95556 23207 ft 379 kts 65°
2026-04-15 15:46 49.73292 9.99256 23207 ft 378 kts 63°
2026-04-15 15:46 49.74460 10.02899 23207 ft 378 kts 62°
2026-04-15 15:46 49.75654 10.06518 23207 ft 378 kts 61°
2026-04-15 15:46 49.76842 10.10142 23215 ft 378 kts 62°
2026-04-15 15:47 49.78013 10.13787 23209 ft 378 kts 62°
2026-04-15 15:47 49.79165 10.17451 23207 ft 379 kts 63°
2026-04-15 15:47 49.80301 10.21124 23205 ft 379 kts 63°
2026-04-15 15:47 49.81431 10.24808 23203 ft 379 kts 63°
2026-04-15 15:48 49.82558 10.28492 23208 ft 379 kts 63°
2026-04-15 15:48 49.83685 10.32186 23208 ft 379 kts 63°
2026-04-15 15:48 49.84812 10.35876 23208 ft 379 kts 63°
2026-04-15 15:48 49.85942 10.39569 23212 ft 379 kts 63°
2026-04-15 15:49 49.87073 10.43258 23210 ft 379 kts 63°
2026-04-15 15:49 49.88208 10.46956 23212 ft 379 kts 63°
2026-04-15 15:49 49.89338 10.50651 23215 ft 380 kts 63°
2026-04-15 15:49 49.90466 10.54354 23218 ft 379 kts 63°
2026-04-15 15:50 49.91591 10.58052 23219 ft 379 kts 63°
2026-04-15 15:50 49.92718 10.61756 23224 ft 379 kts 63°
2026-04-15 15:50 49.93842 10.65461 23227 ft 379 kts 63°
2026-04-15 15:50 49.94962 10.69169 23220 ft 379 kts 63°
2026-04-15 15:51 49.96081 10.72878 23217 ft 379 kts 63°
2026-04-15 15:51 49.97200 10.76591 23214 ft 380 kts 63°
2026-04-15 15:51 49.98320 10.80302 23212 ft 379 kts 63°
2026-04-15 15:51 49.99438 10.84015 23210 ft 380 kts 63°
2026-04-15 15:52 50.00557 10.87736 23209 ft 380 kts 63°
2026-04-15 15:52 50.01675 10.91451 23209 ft 380 kts 63°
2026-04-15 15:52 50.02795 10.95175 23209 ft 380 kts 63°
2026-04-15 15:52 50.03909 10.98899 23211 ft 380 kts 63°
2026-04-15 15:53 50.05023 11.02629 23212 ft 380 kts 63°
2026-04-15 15:53 50.06136 11.06358 23215 ft 380 kts 63°
2026-04-15 15:53 50.07233 11.10038 23217 ft 380 kts 63°
2026-04-15 15:53 50.08342 11.13770 23217 ft 380 kts 63°
2026-04-15 15:54 50.09451 11.17500 23220 ft 379 kts 63°
2026-04-15 15:54 50.10571 11.21279 23222 ft 380 kts 64°
2026-04-15 15:54 50.11675 11.25013 23217 ft 380 kts 63°
2026-04-15 15:54 50.12783 11.28757 23211 ft 380 kts 63°
2026-04-15 15:55 50.13874 11.32450 23215 ft 381 kts 63°
2026-04-15 15:55 50.14980 11.36203 23208 ft 381 kts 64°
2026-04-15 15:55 50.16084 11.39961 23212 ft 381 kts 64°
2026-04-15 15:55 50.17186 11.43722 23210 ft 381 kts 64°
2026-04-15 15:56 50.18289 11.47487 23211 ft 381 kts 64°
2026-04-15 15:56 50.19391 11.51249 23217 ft 382 kts 64°
2026-04-15 15:56 50.20496 11.55017 23217 ft 381 kts 63°
2026-04-15 15:56 50.21597 11.58777 23222 ft 381 kts 64°
2026-04-15 15:57 50.22697 11.62547 23225 ft 381 kts 64°
2026-04-15 15:57 50.23791 11.66313 23227 ft 381 kts 64°
2026-04-15 15:57 50.25089 11.69886 23230 ft 378 kts 53°
2026-04-15 15:57 50.26573 11.73272 23229 ft 378 kts 53°
2026-04-15 15:58 50.28051 11.76678 23233 ft 378 kts 54°
2026-04-15 15:58 50.29491 11.80116 23229 ft 379 kts 55°
2026-04-15 15:58 50.30901 11.83597 23224 ft 379 kts 56°
2026-04-15 15:58 50.32298 11.87100 23221 ft 379 kts 56°
2026-04-15 15:59 50.33691 11.90605 23218 ft 379 kts 56°
2026-04-15 15:59 50.35087 11.94115 23217 ft 380 kts 56°
2026-04-15 15:59 50.36492 11.97618 23217 ft 380 kts 55°
2026-04-15 15:59 50.37903 12.01106 23216 ft 379 kts 55°
2026-04-15 16:00 50.39316 12.04601 23214 ft 380 kts 55°
2026-04-15 16:00 50.40727 12.08096 23216 ft 380 kts 55°
2026-04-15 16:00 50.42137 12.11598 23220 ft 380 kts 55°
2026-04-15 16:00 50.43544 12.15103 23229 ft 379 kts 55°
2026-04-15 16:01 50.44951 12.18601 23230 ft 379 kts 55°
2026-04-15 16:01 50.46359 12.22100 23231 ft 379 kts 55°
2026-04-15 16:01 50.47762 12.25605 23234 ft 379 kts 55°
2026-04-15 16:01 50.49160 12.29111 23232 ft 379 kts 56°
2026-04-15 16:02 50.50555 12.32617 23232 ft 379 kts 56°
2026-04-15 16:02 50.51480 12.34941 23229 ft 379 kts 56°
2026-04-15 16:02 50.52876 12.38454 23195 ft 384 kts 56°
2026-04-15 16:02 50.54346 12.42149 22925 ft 412 kts 56°
2026-04-15 16:03 50.55900 12.46044 22652 ft 425 kts 56°
2026-04-15 16:03 50.57474 12.50003 22387 ft 428 kts 56°
2026-04-15 16:03 50.59049 12.53981 22123 ft 428 kts 56°
2026-04-15 16:03 50.60615 12.57947 21845 ft 425 kts 56°
2026-04-15 16:04 50.62163 12.61876 21313 ft 420 kts 56°
2026-04-15 16:04 50.63694 12.65774 20762 ft 417 kts 57°
2026-04-15 16:04 50.65211 12.69646 20246 ft 414 kts 57°
2026-04-15 16:04 50.66717 12.73492 19725 ft 411 kts 57°
2026-04-15 16:05 50.68214 12.77314 19204 ft 408 kts 57°
2026-04-15 16:05 50.69697 12.81105 18702 ft 405 kts 57°
2026-04-15 16:05 50.71173 12.84884 18155 ft 403 kts 57°
2026-04-15 16:05 50.72633 12.88623 17646 ft 398 kts 57°
2026-04-15 16:06 50.74078 12.92327 17132 ft 395 kts 57°
2026-04-15 16:06 50.75510 12.96006 16608 ft 393 kts 57°
2026-04-15 16:06 50.76936 12.99675 16080 ft 391 kts 57°
2026-04-15 16:06 50.78356 13.03329 15545 ft 389 kts 57°
2026-04-15 16:07 50.79767 13.06966 15004 ft 387 kts 57°
2026-04-15 16:07 50.81172 13.10586 14460 ft 386 kts 57°
2026-04-15 16:07 50.83938 13.17738 13313 ft 382 kts 57°
2026-04-15 16:08 50.85311 13.21308 12755 ft 378 kts 57°
2026-04-15 16:08 50.86674 13.24853 12184 ft 376 kts 57°
2026-04-15 16:08 50.88025 13.28380 11612 ft 373 kts 57°
2026-04-15 16:08 50.89368 13.31887 11033 ft 371 kts 57°
2026-04-15 16:09 50.90724 13.35372 10222 ft 361 kts 57°
2026-04-15 16:09 50.92025 13.38641 9295 ft 348 kts 56°
2026-04-15 16:09 50.93302 13.41808 7948 ft 336 kts 56°
2026-04-15 16:09 50.94564 13.44899 6730 ft 324 kts 56°
2026-04-15 16:10 50.95774 13.47844 5475 ft 314 kts 57°
2026-04-15 16:10 50.96899 13.50594 4955 ft 285 kts 58°
2026-04-15 16:10 50.97913 13.53132 4469 ft 262 kts 58°
2026-04-15 16:10 50.98856 13.55523 4034 ft 243 kts 58°
2026-04-15 16:11 50.99702 13.57661 3873 ft 219 kts 57°
2026-04-15 16:11 51.00694 13.59422 3791 ft 214 kts 41°
2026-04-15 16:11 51.01826 13.60923 3540 ft 209 kts 40°
2026-04-15 16:11 51.02909 13.62372 3301 ft 198 kts 41°
2026-04-15 16:12 51.03927 13.63756 3004 ft 187 kts 42°
2026-04-15 16:12 51.04889 13.65073 2775 ft 179 kts 42°
2026-04-15 16:12 51.05802 13.66322 2523 ft 167 kts 41°
2026-04-15 16:12 51.06645 13.67476 2308 ft 154 kts 41°
2026-04-15 16:13 51.07431 13.68554 2110 ft 146 kts 41°
2026-04-15 16:13 51.08202 13.69610 1906 ft 144 kts 41°
2026-04-15 16:13 51.08952 13.70639 1718 ft 142 kts 41°
2026-04-15 16:13 51.09695 13.71656 1509 ft 145 kts 41°
2026-04-15 16:14 51.10462 13.72705 1324 ft 146 kts 41°
2026-04-15 16:14 51.11225 13.73754 1119 ft 144 kts 39°
2026-04-15 16:14 51.11975 13.74779 951 ft 142 kts 40°
2026-04-15 16:14 51.12724 13.75820 770 ft 140 kts 40°
2026-04-15 16:15 51.13337 13.76665 742 ft 93 kts 41°
2026-04-15 16:15 51.13740 13.77222 728 ft 52 kts 41°
2026-04-15 16:15 51.13893 13.77437 722 ft 13 kts 48°
2026-04-15 16:15 51.13868 13.77574 719 ft 15 kts 131°
2026-04-15 16:16 51.13802 13.77692 716 ft 10 kts 131°
2026-04-15 16:16 51.13744 13.77705 713 ft 8 kts 217°
2026-04-15 16:16 51.13695 13.77638 717 ft 11 kts 220°
2026-04-15 16:16 51.13608 13.77519 721 ft 22 kts 220°
2026-04-15 16:17 51.13473 13.77332 732 ft 28 kts 220°
2026-04-15 16:17 51.13322 13.77124 741 ft 28 kts 221°
2026-04-15 16:17 51.13179 13.76925 745 ft 28 kts 221°
2026-04-15 16:17 51.13034 13.76728 750 ft 28 kts 221°
2026-04-15 16:18 51.12909 13.76553 752 ft 19 kts 221°
2026-04-15 16:18 51.12845 13.76466 754 ft 10 kts 220°
2026-04-15 16:18 51.12794 13.76457 752 ft 7 kts 144°
2026-04-15 16:18 51.12762 13.76509 754 ft 1 kts 132°
2026-04-15 16:19 51.12756 13.76520 752 ft 2 kts 131°
2026-04-15 16:19 51.12744 13.76542 750 ft 4 kts 131°
2026-04-15 16:19 51.12717 13.76592 752 ft 8 kts 131°
2026-04-15 16:19 51.12668 13.76597 751 ft 8 kts 219°
2026-04-15 16:20 51.12632 13.76548 750 ft 2 kts 221°
2026-04-15 16:20 51.12627 13.76540 749 ft 0 kts 221°